Location: Tierra Monte Subdivision
(35.2092°N, 106.4864°W)
Time: 22:53:43
(UTC+00:00)

Cosmos 1953 - Pass Details

Date: 30 March 2020
Orbit: 539 x 558 km, 82.5° (Epoch: 05 June)

Event Time Altitude Azimuth Distance (km) Brightness Sun altitude
Exits shadow 02:50:32 25° 55° (NE) 1,116 3.5 -17.8°
Drops below altitude 10° 02:52:44 10° 28° (NNE) 1,805 4.8 -18.2°
Sets 02:55:03 0° 19° (NNE) 2,703 5.9 -18.7°
